Skip Page Navigation
NASA JPL Caltech
NASA Logo - Jet Propulsion Laboratory + View the NASA Portal
+ Near-Earth Object (NEO) Program
Search JPL
JPL Home Earth Solar System Stars & Galaxies Technology
JPL Solar System Dynamics
BODIES ORBITS EPHEMERIDES TOOLS PHYSICAL DATA DISCOVERY FAQ SITE MAP
JPL Small-Body Database Browser
Search: [ help ]  
(2009 SQ104)
Classification: Apollo [NEO, PHA]          SPK-ID: 3468531
Ephemeris | Orbit Diagram | Orbital Elements | Physical Parameters | Close-Approach Data ]

[ hide orbit diagram ]
Orbit Diagram
Note: Make sure you have Java enabled on your browser to see the applet. This applet is provided as a 3D orbit visualization tool. The applet was implemented using 2-body methods, and hence should not be used for determining accurate long-term trajectories (over several years or decades) or planetary encounter circumstances. For accurate long-term ephemerides, please instead use our Horizons system.
Orbit Viewer

Additional Notes: the orbits shown in the applet are color coded. The planets are white lines, and the asteroid/comet is a blue line. The bright white line indicates the portion of the orbit that is above the ecliptic plane, and the darker portion is below the ecliptic plane. Likewise for the asteroid/comet orbit, the light blue indicates the portion above the ecliptic plane, and the dark blue the portion below the ecliptic plane.

Orbit Viewer applet originally written and kindly provided by Osamu Ajiki (AstroArts), and further modified by Ron Baalke (JPL).


Orbital Elements at Epoch 2456400.5 (2013-Apr-18.0) TDB
Reference: JPL 41 (heliocentric ecliptic J2000)
 Element Value Uncertainty (1-sigma)   Units 
e .2796693110856383 3.3655e-08  
a 1.28460426050688 2.0963e-08 AU
q .9253398719532452 3.5471e-08 AU
i 4.016078402911974 6.4382e-06 deg
node 56.59222855967752 3.9461e-05 deg
peri 95.48636889165851 4.0954e-05 deg
M 29.98109502842765 4.385e-06 deg
tp 2456356.210838905882
(2013-Mar-04.71083891)
6.8053e-06 JED
period 531.8050584464859
1.46
1.3018e-05
3.564e-08
d
yr
n .6769397813771 1.657e-08 deg/d
Q 1.643868649060515 2.6826e-08 AU
  Orbit Determination Parameters
   # obs. used (total)      309  
   data-arc span      1328 days (3.64 yr)  
   first obs. used      2009-09-26  
   last obs. used      2013-05-16  
   planetary ephem.      DE405  
   SB-pert. ephem.      SB405-CPV-2  
   condition code      0  
   fit RMS      .68623  
   data source      ORB  
   producer      Otto Matic  
   solution date      2013-May-22 01:46:53  

Additional Information
 Earth MOID = .038276 AU 
 T_jup = 5.002 
[ show covariance matrix ]

Ephemeris | Orbit Diagram | Orbital Elements | Physical Parameters | Close-Approach Data ]

Physical Parameter Table
Parameter Symbol Value Units Sigma Reference Notes
absolute magnitude H 21.059 mag .58885 41 autocmod 2.5c

[ show close-approach data ]
Ephemeris | Orbit Diagram | Orbital Elements | Physical Parameters | Close-Approach Data ]
ABOUT SSD CREDITS/AWARDS PRIVACY/COPYRIGHT GLOSSARY LINKS
FirstGov 2013-May-23 00:34 UT
(server date/time)  
NASA Home Page
Site Manager:   Donald K. Yeomans
Webmaster  Alan B. Chamberlin